USA 324

Last updated on Fri Oct 31 2025 00:02:49 GMT+0000 (Coordinated Universal Time)

1 51280U 22006A 25302.15694444 .00000114 00000+0 00000+0 0 9999 2 51280 0.2007 80.3675 0000771 359.4917 26.0821 1.00457179 13804
UTC large
Height (km)
Speed (km/s)
/
Latitude / Longitude
Inclination (degrees)
Orbital Period (minutes)
Azimuth
Elevation
Range (km)
Doppler Factor

Next 0 passes for location: London (51.5072 / 0.1276)

Sorry there are no passes over London.